Terminal Aerodrome Forecast
Issued by NWS

Home | Current Version | Previous Version | Text Only | Print | Product List | Glossary On
Versions: 1 2 3 4 5 6 7 8 9 10 11 12 13 14 15 16 17 18 19 20 21 22 23
000
FTUS41 KILN 280500
TAFLCK
TAF
KLCK 280523Z 2806/2906 28010KT P6SM VCSH BKN022
      TEMPO 2806/2808 -SHSN
     FM281100 27005KT P6SM FEW025 BKN040
     FM281600 22008KT P6SM BKN100
     FM290000 17008KT P6SM SCT050=

USA.gov is the U.S. government's official web portal to all federal, state and local government web resources and services.